This is the latest recevied weather packets stored in our database for station/object R1CBW-13. If no packets are shown the sender has not sent any weather packets the latest 1 day(s).
| Time | Temp. | Humidity | Pressure | Rain* | Wind** | Luminosity | Snow |
|---|---|---|---|---|---|---|---|
| 1777973472 | 15.56° C | 38% | 1002.2 hPa | 0 mm | 0 m/s | - | - |
| 1777973412 | 15.56° C | 38% | 1002.3 hPa | 0 mm | 0 m/s | - | - |
| 1777973352 | 16.11° C | 37% | 1002.2 hPa | 0 mm | 0 m/s | - | - |
| 1777973292 | 16.11° C | 38% | 1002.3 hPa | 0 mm | 0 m/s | - | - |
| 1777973232 | 16.11° C | 38% | 1002.2 hPa | 0 mm | 0 m/s | - | - |
| 1777973172 | 15.56° C | 39% | 1002.3 hPa | 0 mm | 0 m/s | - | - |
| 1777973112 | 15.56° C | 39% | 1002.3 hPa | 0 mm | 0 m/s | - | - |
| 1777973052 | 16.11° C | 38% | 1002.4 hPa | 0 mm | 0 m/s | - | - |
| 1777972992 | 15.56° C | 39% | 1002.2 hPa | 0 mm | 0 m/s | - | - |
| 1777972932 | 15° C | 39% | 1002.3 hPa | 0 mm | 0 m/s | - | - |
| 1777972872 | 15.56° C | 40% | 1002.3 hPa | 0 mm | 0 m/s | - | - |
| 1777972812 | 15° C | 41% | 1002.3 hPa | 0 mm | 0 m/s | - | - |
| 1777972752 | 15.56° C | 39% | 1002.3 hPa | 0 mm | 0 m/s | - | - |
| 1777972692 | 15° C | 40% | 1002.4 hPa | 0 mm | 0 m/s | - | - |
| 1777972632 | 14.44° C | 41% | 1002.4 hPa | 0 mm | 0 m/s | - | - |
| 1777972572 | 14.44° C | 40% | 1002.3 hPa | 0 mm | 0 m/s | - | - |
| 1777972512 | 14.44° C | 40% | 1002.3 hPa | 0 mm | 0 m/s | - | - |
| 1777972452 | 14.44° C | 41% | 1002.4 hPa | 0 mm | 0 m/s | - | - |
| 1777972392 | 13.33° C | 42% | 1002.4 hPa | 0 mm | 0 m/s | - | - |
| 1777972332 | 13.89° C | 41% | 1002.4 hPa | 0 mm | 0 m/s | - | - |
| 1777972272 | 13.33° C | 42% | 1002.5 hPa | 0 mm | 0 m/s | - | - |
| 1777972212 | 13.33° C | 42% | 1002.5 hPa | 0 mm | 0 m/s | - | - |
| 1777972152 | 15° C | 40% | 1002.5 hPa | 0 mm | 0 m/s | - | - |
| 1777972092 | 15° C | 41% | 1002.4 hPa | 0 mm | 0 m/s | - | - |
| 1777972032 | 15.56° C | 41% | 1002.5 hPa | 0 mm | 0 m/s | - | - |
* Rain latest hour (hover to see other rain measurements)
** Current wind speed in m/s (hover to see current wind gust speed)